| time (UTC) | temp F | wind direction | speed knots | gust knots | rain 1hr in | rain 24hr in | rain mn in | humidity % | barometer mb |
| 20260502163159 | 58 | 25 | 1.7 | 1.7 | 0.00 | 0.00 | 0.00 | 81 | 1016.9 |
| 20260502162656 | 58 | 21 | 2.6 | 4.3 | 0.00 | 0.00 | 0.00 | 81 | 1017.1 |
| 20260502162153 | 58 | 25 | 2.6 | 2.6 | 0.00 | 0.00 | 0.00 | 82 | 1017.1 |
| 20260502161650 | 57 | 12 | 6.1 | 7.0 | 0.00 | 0.00 | 0.00 | 82 | 1016.7 |
| 20260502161147 | 57 | 2 | 1.7 | 1.7 | 0.00 | 0.00 | 0.00 | 83 | 1016.9 |
| 20260502160645 | 56 | 335 | 4.3 | 6.1 | 0.00 | 0.00 | 0.00 | 84 | 1017.0 |
| 20260502160144 | 56 | 334 | 0.9 | 0.9 | 0.00 | 0.00 | 0.00 | 85 | 1017.0 |
| 20260502152057 | 54 | 308 | 0.9 | 0.9 | 0.00 | 0.00 | 0.00 | 89 | 1016.6 |
| 20260502151554 | 54 | 343 | 0.0 | 0.0 | 0.00 | 0.00 | 0.00 | 90 | 1016.7 |
| 20260502151052 | 53 | 316 | 0.0 | 0.0 | 0.00 | 0.00 | 0.00 | 91 | 1016.8 |
| 20260502150549 | 53 | 318 | 0.0 | 0.0 | 0.00 | 0.00 | 0.00 | 92 | 1016.5 |
| 20260502130434 | 50 | 300 | 0.0 | 0.0 | 0.00 | 0.00 | 0.00 | 94 | 1016.8 |
| 20260502123416 | 50 | 313 | 0.0 | 0.0 | 0.00 | 0.00 | 0.00 | 93 | 1016.8 |
| 20260502122914 | 50 | 303 | 0.0 | 0.0 | 0.00 | 0.00 | 0.00 | 93 | 1016.7 |
| 20260502122410 | 50 | 300 | 0.0 | 0.0 | 0.00 | 0.00 | 0.00 | 93 | 1016.9 |
| 20260502121908 | 50 | 310 | 0.0 | 0.0 | 0.00 | 0.00 | 0.00 | 93 | 1016.6 |
| 20260502121405 | 51 | 296 | 0.0 | 0.0 | 0.00 | 0.00 | 0.00 | 93 | 1016.9 |
| 20260502120902 | 50 | 309 | 0.0 | 0.0 | 0.00 | 0.00 | 0.00 | 93 | 1016.8 |
| 20260502120358 | 51 | 322 | 0.0 | 0.0 | 0.00 | 0.00 | 0.00 | 93 | 1016.7 |
| 20260502115856 | 51 | 345 | 0.9 | 0.9 | 0.00 | 0.00 | 0.00 | 93 | 1016.8 |
| 20260502115353 | 51 | 333 | 0.9 | 0.9 | 0.00 | 0.00 | 0.00 | 93 | 1016.8 |
| 20260502114849 | 51 | 293 | 1.7 | 1.7 | 0.00 | 0.00 | 0.00 | 93 | 1016.9 |
| 20260502114346 | 51 | 305 | 0.9 | 0.9 | 0.00 | 0.00 | 0.00 | 92 | 1016.7 |
| 20260502113843 | 51 | 312 | 0.9 | 0.9 | 0.00 | 0.00 | 0.00 | 92 | 1017.0 |
| 20260502113341 | 51 | 305 | 0.0 | 0.0 | 0.00 | 0.00 | 0.00 | 92 | 1017.2 |
| 20260502112839 | 51 | 257 | 0.9 | 1.7 | 0.00 | 0.00 | 0.00 | 92 | 1017.2 |
| 20260502112336 | 51 | 297 | 1.7 | 1.7 | 0.00 | 0.00 | 0.00 | 92 | 1017.3 |
| 20260502111834 | 51 | 258 | 0.9 | 1.7 | 0.00 | 0.00 | 0.00 | 92 | 1017.2 |
| 20260502111331 | 51 | 244 | 2.6 | 2.6 | 0.00 | 0.00 | 0.00 | 92 | 1017.2 |
| 20260502110828 | 51 | 230 | 1.7 | 2.6 | 0.00 | 0.00 | 0.00 | 92 | 1017.4 |
| 20260502110326 | 51 | 271 | 0.9 | 1.7 | 0.00 | 0.00 | 0.00 | 92 | 1017.3 |
| 20260502105823 | 51 | 283 | 0.9 | 1.7 | 0.00 | 0.00 | 0.00 | 92 | 1017.0 |
| 20260502105320 | 51 | 288 | 0.0 | 0.9 | 0.00 | 0.00 | 0.00 | 92 | 1016.7 |
| 20260502104818 | 52 | 285 | 0.0 | 0.0 | 0.00 | 0.00 | 0.00 | 92 | 1016.6 |
| 20260502104315 | 52 | 277 | 0.0 | 0.9 | 0.00 | 0.00 | 0.00 | 92 | 1016.7 |
| 20260502103812 | 52 | 281 | 0.0 | 0.0 | 0.00 | 0.00 | 0.00 | 92 | 1016.5 |
| 20260502103309 | 52 | 283 | 0.0 | 0.0 | 0.00 | 0.00 | 0.00 | 92 | 1016.5 |
| 20260502102807 | 52 | 274 | 0.9 | 1.7 | 0.00 | 0.00 | 0.00 | 92 | 1016.5 |
| 20260502102306 | 52 | 249 | 1.7 | 1.7 | 0.00 | 0.00 | 0.00 | 91 | 1016.4 |
| 20260502101801 | 52 | 281 | 0.0 | 0.0 | 0.00 | 0.00 | 0.00 | 91 | 1016.5 |
| 20260502101259 | 52 | 290 | 1.7 | 2.6 | 0.00 | 0.00 | 0.00 | 91 | 1016.4 |
| 20260502100756 | 52 | 288 | 2.6 | 4.3 | 0.00 | 0.00 | 0.00 | 91 | 1016.4 |
| 20260502100255 | 52 | 296 | 0.9 | 0.9 | 0.00 | 0.00 | 0.00 | 90 | 1016.6 |
| 20260502091229 | 54 | 277 | 0.9 | 0.9 | 0.00 | 0.00 | 0.00 | 86 | 1016.8 |
| 20260502090727 | 54 | 279 | 0.0 | 0.0 | 0.00 | 0.00 | 0.00 | 86 | 1016.7 |
| 20260502090223 | 54 | 295 | 0.0 | 0.0 | 0.00 | 0.00 | 0.00 | 86 | 1016.8 |
| 20260502071119 | 58 | 43 | 1.7 | 2.6 | 0.00 | 0.00 | 0.00 | 70 | 1016.1 |
| 20260502070617 | 58 | 341 | 0.0 | 0.0 | 0.00 | 0.00 | 0.00 | 72 | 1016.4 |
| 20260502070115 | 58 | 333 | 0.0 | 0.0 | 0.00 | 0.00 | 0.00 | 72 | 1016.3 |
| 20260502065613 | 57 | 316 | 0.0 | 0.0 | 0.00 | 0.00 | 0.00 | 74 | 1016.1 |
| 20260502065110 | 58 | 309 | 0.0 | 0.0 | 0.00 | 0.00 | 0.00 | 74 | 1015.9 |
| 20260502064609 | 58 | 315 | 0.0 | 0.0 | 0.00 | 0.00 | 0.00 | 74 | 1016.1 |
| 20260502064105 | 58 | 303 | 0.0 | 0.0 | 0.00 | 0.00 | 0.00 | 74 | 1016.1 |
| 20260502063603 | 59 | 301 | 0.0 | 0.0 | 0.00 | 0.00 | 0.00 | 72 | 1016.2 |
| 20260502063101 | 59 | 311 | 0.0 | 0.0 | 0.00 | 0.00 | 0.00 | 68 | 1016.1 |
| 20260502062558 | 59 | 315 | 0.0 | 0.0 | 0.00 | 0.00 | 0.00 | 67 | 1016.1 |
| 20260502062055 | 59 | 337 | 0.0 | 0.0 | 0.00 | 0.00 | 0.00 | 66 | 1016.2 |
| 20260502061553 | 60 | 338 | 0.0 | 0.0 | 0.00 | 0.00 | 0.00 | 66 | 1016.1 |
| 20260502061050 | 60 | 13 | 2.6 | 2.6 | 0.00 | 0.00 | 0.00 | 66 | 1016.2 |
| 20260502060545 | 60 | 1 | 0.9 | 0.9 | 0.00 | 0.00 | 0.00 | 66 | 1016.0 |
| 20260502060042 | 60 | 29 | 1.7 | 1.7 | 0.00 | 0.00 | 0.00 | 66 | 1015.8 |
| 20260502055540 | 60 | 11 | 1.7 | 1.7 | 0.00 | 0.00 | 0.00 | 66 | 1016.2 |
| 20260502055038 | 60 | 334 | 0.9 | 0.9 | 0.00 | 0.00 | 0.00 | 66 | 1016.1 |
| 20260502054537 | 60 | 350 | 2.6 | 2.6 | 0.00 | 0.00 | 0.00 | 65 | 1015.9 |
| 20260502054033 | 60 | 5 | 0.9 | 0.9 | 0.00 | 0.00 | 0.00 | 65 | 1016.0 |
| 20260502053530 | 61 | 30 | 1.7 | 2.6 | 0.00 | 0.00 | 0.00 | 64 | 1015.8 |
| 20260502053028 | 61 | 6 | 1.7 | 1.7 | 0.00 | 0.00 | 0.00 | 64 | 1015.8 |
| 20260502052526 | 61 | 25 | 0.9 | 0.9 | 0.00 | 0.00 | 0.00 | 64 | 1015.8 |
| 20260502052024 | 61 | 21 | 2.6 | 2.6 | 0.00 | 0.00 | 0.00 | 63 | 1015.8 |
| 20260502051522 | 62 | 3 | 0.9 | 1.7 | 0.00 | 0.00 | 0.00 | 62 | 1015.7 |
| 20260502051020 | 62 | 28 | 0.0 | 0.9 | 0.00 | 0.00 | 0.00 | 62 | 1015.7 |
| 20260502050515 | 62 | 338 | 0.0 | 0.9 | 0.00 | 0.00 | 0.00 | 61 | 1015.7 |
| 20260502050013 | 62 | 6 | 0.9 | 1.7 | 0.00 | 0.00 | 0.00 | 60 | 1015.5 |
| 20260502045509 | 62 | 25 | 0.0 | 0.9 | 0.00 | 0.00 | 0.00 | 60 | 1015.6 |
| 20260502045006 | 62 | 3 | 0.0 | 0.9 | 0.00 | 0.00 | 0.00 | 60 | 1015.8 |
| 20260502044503 | 62 | 341 | 1.7 | 2.6 | 0.00 | 0.00 | 0.00 | 60 | 1015.6 |
| 20260502043959 | 63 | 339 | 0.9 | 0.9 | 0.00 | 0.00 | 0.00 | 60 | 1015.4 |
| 20260502043457 | 63 | 3 | 2.6 | 2.6 | 0.00 | 0.00 | 0.00 | 60 | 1015.5 |
| 20260502042956 | 63 | 335 | 1.7 | 1.7 | 0.00 | 0.00 | 0.00 | 59 | 1015.2 |
| 20260502042453 | 63 | 355 | 0.9 | 1.7 | 0.00 | 0.00 | 0.00 | 59 | 1015.4 |
| 20260502041951 | 63 | 359 | 2.6 | 4.3 | 0.00 | 0.00 | 0.00 | 59 | 1015.2 |
| 20260502041448 | 63 | 357 | 2.6 | 4.3 | 0.00 | 0.00 | 0.00 | 59 | 1015.1 |
| 20260502040945 | 63 | 338 | 4.3 | 5.2 | 0.00 | 0.00 | 0.00 | 60 | 1015.2 |
| 20260502040442 | 63 | 13 | 3.5 | 4.3 | 0.00 | 0.00 | 0.00 | 60 | 1015.1 |
| 20260502035938 | 63 | 20 | 0.9 | 1.7 | 0.00 | 0.00 | 0.00 | 60 | 1015.1 |
| 20260502035434 | 63 | 352 | 1.7 | 1.7 | 0.00 | 0.00 | 0.00 | 60 | 1015.0 |
| 20260502034932 | 64 | 52 | 1.7 | 1.7 | 0.00 | 0.00 | 0.00 | 60 | 1015.0 |
| 20260502034431 | 63 | 17 | 0.0 | 0.9 | 0.00 | 0.00 | 0.00 | 59 | 1015.1 |
| 20260502033929 | 64 | 12 | 0.9 | 0.9 | 0.00 | 0.00 | 0.00 | 59 | 1015.1 |
| 20260502033426 | 64 | 26 | 3.5 | 5.2 | 0.00 | 0.00 | 0.00 | 58 | 1014.8 |
| 20260502032922 | 64 | 35 | 2.6 | 4.3 | 0.00 | 0.00 | 0.00 | 57 | 1014.9 |
| 20260502032419 | 64 | 55 | 2.6 | 2.6 | 0.00 | 0.00 | 0.00 | 57 | 1014.9 |
| 20260502031916 | 64 | 5 | 4.3 | 5.2 | 0.00 | 0.00 | 0.00 | 56 | 1014.9 |
| 20260502031415 | 64 | 4 | 1.7 | 2.6 | 0.00 | 0.00 | 0.00 | 57 | 1014.8 |
| 20260502030913 | 64 | 14 | 1.7 | 2.6 | 0.00 | 0.00 | 0.00 | 56 | 1014.7 |
| 20260502030411 | 64 | 334 | 2.6 | 4.3 | 0.00 | 0.00 | 0.00 | 56 | 1014.3 |
| 20260502025908 | 64 | 6 | 0.9 | 1.7 | 0.00 | 0.00 | 0.00 | 57 | 1014.5 |
| 20260502025405 | 64 | 338 | 0.9 | 0.9 | 0.00 | 0.00 | 0.00 | 59 | 1014.6 |
| 20260502024903 | 64 | 17 | 1.7 | 1.7 | 0.00 | 0.00 | 0.00 | 60 | 1014.6 |
| 20260502024401 | 65 | 354 | 2.6 | 2.6 | 0.00 | 0.00 | 0.00 | 61 | 1014.3 |
| 20260502023858 | 65 | 9 | 4.3 | 5.2 | 0.00 | 0.00 | 0.00 | 61 | 1014.6 |
| 20260502023355 | 65 | 337 | 0.9 | 0.9 | 0.00 | 0.00 | 0.00 | 61 | 1014.4 |
| 20260502022853 | 65 | 353 | 2.6 | 4.3 | 0.00 | 0.00 | 0.00 | 61 | 1014.4 |
| 20260502022349 | 65 | 2 | 2.6 | 4.3 | 0.00 | 0.00 | 0.00 | 61 | 1014.4 |
| 20260502021846 | 65 | 29 | 3.5 | 4.3 | 0.00 | 0.00 | 0.00 | 62 | 1014.2 |
| 20260502021344 | 65 | 330 | 3.5 | 5.2 | 0.00 | 0.00 | 0.00 | 62 | 1014.2 |
| 20260502020841 | 65 | 6 | 6.1 | 9.6 | 0.00 | 0.00 | 0.00 | 61 | 1014.0 |
| 20260502020338 | 65 | 26 | 6.1 | 7.8 | 0.00 | 0.00 | 0.00 | 61 | 1014.5 |
| 20260502015835 | 65 | 7 | 3.5 | 5.2 | 0.00 | 0.00 | 0.00 | 61 | 1014.3 |
| 20260502015332 | 66 | 317 | 1.7 | 2.6 | 0.00 | 0.00 | 0.00 | 61 | 1014.3 |
| 20260502014829 | 66 | 355 | 2.6 | 4.3 | 0.00 | 0.00 | 0.00 | 60 | 1014.3 |
| 20260502014326 | 66 | 336 | 0.0 | 0.9 | 0.00 | 0.00 | 0.00 | 59 | 1014.2 |
| 20260502013822 | 66 | 325 | 2.6 | 2.6 | 0.00 | 0.00 | 0.00 | 59 | 1014.3 |
| 20260502013318 | 66 | 337 | 2.6 | 5.2 | 0.00 | 0.00 | 0.00 | 59 | 1014.4 |
| 20260502012815 | 67 | 2 | 2.6 | 2.6 | 0.00 | 0.00 | 0.00 | 58 | 1014.5 |
| 20260502012313 | 67 | 292 | 0.9 | 1.7 | 0.00 | 0.00 | 0.00 | 57 | 1014.4 |
| 20260502011810 | 66 | 301 | 0.0 | 0.0 | 0.00 | 0.00 | 0.00 | 59 | 1014.3 |
| 20260502011306 | 67 | 311 | 1.7 | 1.7 | 0.00 | 0.00 | 0.00 | 58 | 1014.5 |
| 20260502010803 | 66 | 335 | 1.7 | 2.6 | 0.00 | 0.00 | 0.00 | 58 | 1014.4 |
| 20260502010259 | 66 | 347 | 5.2 | 8.7 | 0.00 | 0.00 | 0.00 | 59 | 1014.5 |
| 20260502005756 | 66 | 313 | 10.4 | 12.2 | 0.00 | 0.00 | 0.00 | 58 | 1014.6 |
| 20260502005255 | 66 | 323 | 4.3 | 6.1 | 0.00 | 0.00 | 0.00 | 58 | 1014.3 |
| 20260502004751 | 66 | 292 | 5.2 | 7.0 | 0.00 | 0.00 | 0.00 | 59 | 1014.1 |
| 20260502004247 | 66 | 327 | 3.5 | 5.2 | 0.00 | 0.00 | 0.00 | 58 | 1014.4 |
| 20260502003745 | 66 | 334 | 4.3 | 7.8 | 0.00 | 0.00 | 0.00 | 58 | 1014.2 |
| 20260502003243 | 67 | 301 | 5.2 | 7.0 | 0.00 | 0.00 | 0.00 | 57 | 1014.4 |
| 20260502002738 | 67 | 299 | 4.3 | 7.0 | 0.00 | 0.00 | 0.00 | 55 | 1014.3 |
| 20260502002236 | 68 | 322 | 4.3 | 7.0 | 0.00 | 0.00 | 0.00 | 54 | 1014.4 |
| 20260502001732 | 69 | 10 | 8.7 | 12.2 | 0.00 | 0.00 | 0.00 | 52 | 1014.4 |
| 20260502001231 | 68 | 338 | 1.7 | 2.6 | 0.00 | 0.00 | 0.00 | 52 | 1014.4 |
| 20260502000728 | 68 | 2 | 5.2 | 7.8 | 0.00 | 0.00 | 0.00 | 52 | 1014.4 |
| 20260502000226 | 68 | 2 | 10.4 | 13.9 | 0.00 | 0.00 | 0.00 | 53 | 1014.3 |
| 20260501235721 | 68 | 264 | 3.5 | 5.2 | 0.00 | 0.00 | 0.00 | 53 | 1014.1 |
| 20260501235218 | 67 | 353 | 5.2 | 7.8 | 0.00 | 0.00 | 0.00 | 54 | 1014.2 |
| 20260501234713 | 67 | 5 | 6.1 | 11.3 | 0.00 | 0.00 | 0.00 | 53 | 1014.3 |
| 20260501234211 | 67 | 314 | 7.8 | 9.6 | 0.00 | 0.00 | 0.00 | 53 | 1014.4 |
| 20260501233709 | 67 | 342 | 10.4 | 13.0 | 0.00 | 0.00 | 0.00 | 53 | 1014.4 |
| 20260501233206 | 68 | 320 | 9.6 | 12.2 | 0.00 | 0.00 | 0.00 | 53 | 1014.4 |
| 20260501232701 | 67 | 308 | 10.4 | 15.6 | 0.00 | 0.00 | 0.00 | 54 | 1014.5 |
| 20260501232159 | 69 | 339 | 6.1 | 11.3 | 0.00 | 0.00 | 0.00 | 53 | 1014.4 |
| 20260501231657 | 68 | 356 | 2.6 | 4.3 | 0.00 | 0.00 | 0.00 | 54 | 1014.5 |
| 20260501231155 | 68 | 357 | 7.8 | 11.3 | 0.00 | 0.00 | 0.00 | 54 | 1014.5 |
| 20260501230653 | 69 | 293 | 6.1 | 11.3 | 0.00 | 0.00 | 0.00 | 55 | 1014.8 |
| 20260501230151 | 67 | 11 | 6.1 | 7.0 | 0.00 | 0.00 | 0.00 | 55 | 1014.8 |
| 20260501225648 | 69 | 42 | 4.3 | 6.1 | 0.00 | 0.00 | 0.00 | 54 | 1014.8 |
| 20260501225144 | 69 | 17 | 6.1 | 6.1 | 0.00 | 0.00 | 0.00 | 54 | 1015.0 |
| 20260501224641 | 67 | 8 | 2.6 | 6.1 | 0.00 | 0.00 | 0.00 | 56 | 1014.9 |
| 20260501224138 | 68 | 322 | 8.7 | 12.2 | 0.00 | 0.00 | 0.00 | 54 | 1014.9 |
| 20260501223635 | 69 | 341 | 7.8 | 9.6 | 0.00 | 0.00 | 0.00 | 53 | 1015.0 |
| 20260501223132 | 70 | 3 | 7.0 | 12.2 | 0.00 | 0.00 | 0.00 | 52 | 1015.0 |
| 20260501222627 | 68 | 1 | 2.6 | 7.0 | 0.00 | 0.00 | 0.00 | 55 | 1014.9 |
| 20260501222125 | 68 | 332 | 0.9 | 2.6 | 0.00 | 0.00 | 0.00 | 55 | 1015.1 |
| 20260501221621 | 67 | 327 | 5.2 | 7.8 | 0.00 | 0.00 | 0.00 | 56 | 1015.0 |
| 20260501221119 | 68 | 303 | 7.0 | 7.8 | 0.00 | 0.00 | 0.00 | 54 | 1015.4 |
| 20260501220617 | 68 | 349 | 4.3 | 7.0 | 0.00 | 0.00 | 0.00 | 55 | 1015.4 |
| 20260501220113 | 69 | 305 | 6.1 | 7.8 | 0.00 | 0.00 | 0.00 | 53 | 1015.1 |
| 20260501215610 | 68 | 13 | 9.6 | 9.6 | 0.00 | 0.00 | 0.00 | 54 | 1015.3 |
| 20260501215105 | 68 | 339 | 7.8 | 11.3 | 0.00 | 0.00 | 0.00 | 55 | 1015.3 |
| 20260501214600 | 67 | 8 | 7.8 | 13.0 | 0.00 | 0.00 | 0.00 | 56 | 1015.3 |
| 20260501214056 | 67 | 348 | 5.2 | 7.0 | 0.00 | 0.00 | 0.00 | 58 | 1015.2 |
| 20260501213553 | 68 | 337 | 6.1 | 11.3 | 0.00 | 0.00 | 0.00 | 56 | 1015.3 |
| 20260501213049 | 67 | 342 | 8.7 | 11.3 | 0.00 | 0.00 | 0.00 | 57 | 1015.3 |
| 20260501212546 | 69 | 46 | 6.1 | 8.7 | 0.00 | 0.00 | 0.00 | 55 | 1015.4 |
| 20260501212043 | 68 | 346 | 7.0 | 9.6 | 0.00 | 0.00 | 0.00 | 54 | 1015.4 |
| 20260501211539 | 67 | 353 | 4.3 | 8.7 | 0.00 | 0.00 | 0.00 | 57 | 1015.5 |
| 20260501211038 | 68 | 1 | 3.5 | 4.3 | 0.00 | 0.00 | 0.00 | 55 | 1015.4 |
| 20260501210533 | 68 | 348 | 4.3 | 7.0 | 0.00 | 0.00 | 0.00 | 55 | 1015.7 |
| 20260501210031 | 68 | 3 | 1.7 | 1.7 | 0.00 | 0.00 | 0.00 | 53 | 1015.5 |
| 20260501205527 | 71 | 241 | 0.9 | 1.7 | 0.00 | 0.00 | 0.00 | 49 | 1015.4 |
| 20260501205025 | 69 | 272 | 0.9 | 1.7 | 0.00 | 0.00 | 0.00 | 52 | 1015.4 |
| 20260501204521 | 70 | 331 | 2.6 | 5.2 | 0.00 | 0.00 | 0.00 | 51 | 1015.4 |
| 20260501204017 | 68 | 341 | 2.6 | 5.2 | 0.00 | 0.00 | 0.00 | 57 | 1015.5 |
| 20260501203514 | 69 | 318 | 7.8 | 11.3 | 0.00 | 0.00 | 0.00 | 54 | 1015.6 |
| 20260501203012 | 68 | 11 | 6.1 | 8.7 | 0.00 | 0.00 | 0.00 | 56 | 1015.5 |
| 20260501202508 | 67 | 319 | 4.3 | 5.2 | 0.00 | 0.00 | 0.00 | 56 | 1015.6 |
| 20260501202004 | 68 | 341 | 4.3 | 6.1 | 0.00 | 0.00 | 0.00 | 53 | 1015.6 |
| 20260501201502 | 68 | 344 | 7.8 | 8.7 | 0.00 | 0.00 | 0.00 | 55 | 1015.6 |
| 20260501200958 | 68 | 1 | 7.0 | 8.7 | 0.00 | 0.00 | 0.00 | 54 | 1015.5 |
| 20260501200456 | 67 | 315 | 4.3 | 6.1 | 0.00 | 0.00 | 0.00 | 56 | 1015.8 |
| 20260501195953 | 67 | 337 | 1.7 | 1.7 | 0.00 | 0.00 | 0.00 | 57 | 1015.9 |
| 20260501195450 | 66 | 331 | 3.5 | 4.3 | 0.00 | 0.00 | 0.00 | 58 | 1015.7 |
| 20260501194945 | 66 | 316 | 6.1 | 7.0 | 0.00 | 0.00 | 0.00 | 58 | 1015.9 |
| 20260501194441 | 66 | 263 | 3.5 | 5.2 | 0.00 | 0.00 | 0.00 | 61 | 1016.0 |
| 20260501193937 | 66 | 336 | 6.1 | 7.8 | 0.00 | 0.00 | 0.00 | 59 | 1015.7 |
| 20260501193435 | 66 | 322 | 3.5 | 5.2 | 0.00 | 0.00 | 0.00 | 60 | 1015.8 |
| 20260501192933 | 66 | 275 | 2.6 | 5.2 | 0.00 | 0.00 | 0.00 | 61 | 1015.8 |
| 20260501192430 | 66 | 359 | 1.7 | 2.6 | 0.00 | 0.00 | 0.00 | 62 | 1016.0 |
| 20260501191927 | 66 | 295 | 3.5 | 5.2 | 0.00 | 0.00 | 0.00 | 62 | 1015.8 |
| 20260501191424 | 65 | 301 | 4.3 | 6.1 | 0.00 | 0.00 | 0.00 | 63 | 1016.1 |
| 20260501190921 | 65 | 313 | 5.2 | 11.3 | 0.00 | 0.00 | 0.00 | 63 | 1016.1 |
| 20260501190417 | 65 | 342 | 2.6 | 5.2 | 0.00 | 0.00 | 0.00 | 63 | 1015.8 |
| 20260501185917 | 65 | 258 | 6.1 | 9.6 | 0.00 | 0.00 | 0.00 | 63 | 1015.8 |
| 20260501185414 | 66 | 296 | 4.3 | 7.0 | 0.00 | 0.00 | 0.00 | 62 | 1015.9 |
| 20260501184910 | 65 | 310 | 0.9 | 1.7 | 0.00 | 0.00 | 0.00 | 63 | 1016.1 |
| 20260501184406 | 65 | 324 | 4.3 | 5.2 | 0.00 | 0.00 | 0.00 | 63 | 1016.2 |
| 20260501183901 | 64 | 309 | 3.5 | 4.3 | 0.00 | 0.00 | 0.00 | 64 | 1016.1 |
| 20260501183359 | 64 | 311 | 2.6 | 5.2 | 0.00 | 0.00 | 0.00 | 64 | 1016.1 |
| 20260501182855 | 66 | 323 | 3.5 | 5.2 | 0.00 | 0.00 | 0.00 | 61 | 1016.3 |
| 20260501182352 | 64 | 295 | 4.3 | 6.1 | 0.00 | 0.00 | 0.00 | 63 | 1016.4 |
| 20260501181849 | 64 | 325 | 4.3 | 6.1 | 0.00 | 0.00 | 0.00 | 63 | 1016.6 |
| 20260501181346 | 64 | 330 | 5.2 | 7.8 | 0.00 | 0.00 | 0.00 | 64 | 1016.5 |
| 20260501180844 | 64 | 274 | 0.9 | 1.7 | 0.00 | 0.00 | 0.00 | 64 | 1016.6 |
| 20260501180339 | 64 | 316 | 4.3 | 5.2 | 0.00 | 0.00 | 0.00 | 63 | 1016.5 |
| 20260501175837 | 64 | 329 | 4.3 | 6.1 | 0.00 | 0.00 | 0.00 | 62 | 1016.3 |
| 20260501175333 | 64 | 314 | 5.2 | 6.1 | 0.00 | 0.00 | 0.00 | 64 | 1016.4 |
| 20260501174830 | 64 | 322 | 7.0 | 8.7 | 0.00 | 0.00 | 0.00 | 62 | 1016.6 |
| 20260501174327 | 64 | 303 | 4.3 | 7.0 | 0.00 | 0.00 | 0.00 | 62 | 1016.4 |
| 20260501173825 | 64 | 282 | 2.6 | 2.6 | 0.00 | 0.00 | 0.00 | 64 | 1016.6 |
| 20260501173323 | 64 | 348 | 2.6 | 4.3 | 0.00 | 0.00 | 0.00 | 65 | 1016.5 |
| 20260501172818 | 63 | 330 | 2.6 | 4.3 | 0.00 | 0.00 | 0.00 | 66 | 1016.8 |
| 20260501172313 | 62 | 325 | 1.7 | 2.6 | 0.00 | 0.00 | 0.00 | 68 | 1016.7 |
| 20260501171809 | 62 | 274 | 2.6 | 4.3 | 0.00 | 0.00 | 0.00 | 70 | 1016.7 |
| 20260501171306 | 62 | 256 | 3.5 | 5.2 | 0.00 | 0.00 | 0.00 | 70 | 1016.7 |
| 20260501170803 | 61 | 290 | 2.6 | 5.2 | 0.00 | 0.00 | 0.00 | 74 | 1016.8 |
| 20260501170300 | 61 | 255 | 2.6 | 2.6 | 0.00 | 0.00 | 0.00 | 74 | 1016.7 |
| 20260501165757 | 61 | 328 | 2.6 | 5.2 | 0.00 | 0.00 | 0.00 | 74 | 1016.9 |
| 20260501165255 | 62 | 308 | 2.6 | 5.2 | 0.00 | 0.00 | 0.00 | 74 | 1016.8 |
| 20260501164752 | 61 | 234 | 1.7 | 2.6 | 0.00 | 0.00 | 0.00 | 75 | 1017.0 |
| 20260501164249 | 60 | 274 | 1.7 | 1.7 | 0.00 | 0.00 | 0.00 | 77 | 1016.8 |
| 20260501163745 | 60 | 243 | 0.9 | 1.7 | 0.00 | 0.00 | 0.00 | 77 | 1017.0 |